Home > Weather > Kowloon > Past weeks

Flag for Hong Kong Past Weather in Kowloon, Hong Kong — Yesterday and Last 2 Weeks

Now
81 °F

Passing clouds.


Feels Like: 85 °F
Forecast: 78 / 88 °F
Wind: 6 mph from East

Location: National Airport

Current Time: Aug 30, 2016 at 3:56:35 AM

Latest Report: Aug 30, 2016 at 3:00 AM


Visibility: N/A

Pressure: 29.74 "Hg

Humidity: 74%

Dew Point: 72 °F

Location of KowloonLocation

Past Weather in Kowloon — Graph

°F

Kowloon Temperature Yesterday

Maximum temperature yesterday: 86 °F (at 10:30 AM)
Minimum temperature yesterday: 81 °F (at 5:30 AM)
Average temperature yesterday: 82 °F

High & Low Weather Summary for the Past Weeks

 TemperatureHumidityPressure
High95 °F (Aug 26, 2:30 PM)94% (Aug 15, 5:30 PM)29.80 "Hg (Aug 15, 5:30 PM)
Low77 °F (Aug 21, 3:30 AM)49% (Aug 22, 4:00 PM)29.27 "Hg (Aug 17, 3:00 PM)
Average85 °F76%29.59 "Hg
* Reported Aug 15 2:00 AM — Aug 30 2:30 AM, Kowloon, Weather by CustomWeather, © 2016

Note: Actual official high and low records may vary slightly from our data, if they occured in-between our weather recording intervals... More about our weather records

Advertising

Kowloon Weather History for the Previous 24 Hours

Scroll right to see more
 ConditionsComfort  
Time TempWeatherWind HumidityBarometerVisibility
2:30 AM
Tue, Aug 30
81 °FPassing clouds.6 mph74%29.74 "HgN/A
2:00 AM81 °FPassing clouds.6 mph74%29.77 "HgN/A
1:30 AM81 °FPassing clouds.7 mph74%29.77 "HgN/A
1:00 AM81 °FPassing clouds.7 mph74%29.77 "HgN/A
12:30 AM81 °FPassing clouds.7 mph74%29.77 "HgN/A
12:00 AM81 °FPassing clouds.8 mph74%29.77 "HgN/A
11:30 PM
Mon, Aug 29
81 °FPassing clouds.8 mph74%29.77 "HgN/A
11:00 PM81 °FPassing clouds.7 mph70%29.77 "HgN/A
10:30 PM81 °FPassing clouds.9 mph70%29.80 "HgN/A
10:00 PM81 °FPassing clouds.7 mph74%29.80 "HgN/A
9:30 PM81 °FClear.8 mph74%29.77 "Hg10 mi
9:00 PM81 °FPassing clouds.8 mph74%29.77 "HgN/A
8:30 PM81 °FPassing clouds.7 mph74%29.77 "HgN/A
8:00 PM81 °FPassing clouds.8 mph74%29.77 "HgN/A
7:30 PM81 °FPassing clouds.9 mph74%29.74 "HgN/A
7:00 PM81 °FPassing clouds.10 mph74%29.74 "HgN/A
6:30 PM81 °FScattered clouds.9 mph74%29.74 "HgN/A
6:00 PM81 °FScattered clouds.9 mph74%29.74 "HgN/A
5:30 PM82 °FScattered clouds.9 mph70%29.71 "HgN/A
5:00 PM82 °FScattered clouds.9 mph70%29.71 "HgN/A
4:30 PM82 °FScattered clouds.9 mph70%29.71 "HgN/A
4:00 PM82 °FScattered clouds.9 mph70%29.71 "HgN/A
3:30 PM82 °FScattered clouds.8 mph70%29.71 "HgN/A
3:00 PM82 °FScattered clouds.8 mph70%29.71 "HgN/A
2:30 PM81 °FScattered clouds.9 mph74%29.74 "HgN/A
2:00 PM82 °FScattered clouds.10 mph70%29.74 "HgN/A
1:30 PM82 °FScattered clouds.12 mph70%29.74 "HgN/A
1:00 PM82 °FScattered clouds.9 mph70%29.74 "HgN/A
12:30 PM82 °FPassing clouds.9 mph70%29.74 "HgN/A
12:00 PM82 °FPassing clouds.12 mph70%29.77 "HgN/A
11:30 AM84 °FPassing clouds.9 mph66%29.77 "HgN/A
11:00 AM84 °FPassing clouds.6 mph62%29.77 "HgN/A
10:30 AM86 °FPassing clouds.7 mph55%29.77 "HgN/A
10:00 AM84 °FPassing clouds.6 mph58%29.77 "HgN/A
9:30 AM82 °FSunny.6 mph58%29.77 "Hg10 mi
9:00 AM82 °FSunny.9 mph58%29.77 "Hg10 mi
8:30 AM82 °FSunny.13 mph58%29.77 "Hg10 mi
8:00 AM82 °FSunny.13 mph55%29.74 "Hg10 mi
7:30 AM81 °FPassing clouds.14 mph58%29.74 "HgN/A
7:00 AM82 °FPassing clouds.12 mph55%29.74 "HgN/A
6:30 AM82 °FPassing clouds.10 mph55%29.71 "HgN/A
6:00 AM81 °FPassing clouds.9 mph66%29.71 "HgN/A
5:30 AM81 °FPassing clouds.10 mph70%29.71 "HgN/A
5:00 AM82 °FPassing clouds.10 mph66%29.71 "HgN/A
4:30 AM82 °FPassing clouds.10 mph66%29.71 "HgN/A
4:00 AM82 °FPassing clouds.10 mph66%29.68 "HgN/A
3:30 AM82 °FPassing clouds.8 mph70%29.68 "Hg6 mi
3:00 AM82 °FPassing clouds.8 mph70%29.68 "Hg6 mi
Weather by CustomWeather, © 2016

See weather overviewHow to use our weather pages